Concord, NH

10:37 PM EDT on September 22, 2017 (GMT -0400)
Concord Municipal

Weather History for KCON - February, 2014

Change the Weather History Date:

Saturday, February 1, 2014

  Actual Average Record
Temperature  
Mean Temperature 30 °F 21 °F  
Max Temperature 40 °F 32 °F 62 °F (1989)
Min Temperature 19 °F 11 °F -26 °F (1971)
Degree Days  
Heating Degree Days 35 44  
Month to date heating degree days 35 44  
Since 1 July heating degree days 4232 4166  
Cooling Degree Days 0 0  
Month to date cooling degree days 0 0  
Year to date cooling degree days 0 0  
Moisture  
Dew Point 21 °F    
Average Humidity 68    
Maximum Humidity 91    
Minimum Humidity 44    
Precipitation  
Precipitation T in 0.09 in 1.16 in (2008)
Month to date precipitation T 0.09  
Year to date precipitation 3.28 2.79  
Snow  
Snow T in 0.50 in 12.00 in (1898)
Month to date snowfall T 0.5  
Since 1 July snowfall 31.3 35.7  
Snow Depth 8.00 in    
Sea Level Pressure  
Sea Level Pressure 30.21 in    
Wind  
Wind Speed 3 mph (SSE)    
Max Wind Speed 13 mph    
Max Gust Speed 16 mph    
Visibility 10 miles    
Events Snow    
T = Trace of Precipitation, MM = Missing Value Source: NWS Daily Summary

Daily Weather History Graph

Daily Weather History Graph

Search for Another Location

Airport or City:

Trip Planner

Search our weather history database for the weather conditions in past years. The results will help you decide how hot, cold, wet, or windy it might be!

Date:

Astronomy

Feb. 01, 2014 Rise Set
Actual Time 7:01 AM EST 4:58 PM EST
Civil Twilight 6:31 AM EST 5:28 PM EST
Nautical Twilight 5:57 AM EST 6:02 PM EST
Astronomical Twilight 5:23 AM EST 6:35 PM EST
Moon 7:44 AM EST (2/1) 7:35 PM EST (2/1)
Length of Visible Light 10h 57m
Length of Day
9h 56m
Waxing Crescent, 5% of the Moon is Illuminated
Feb 1
Waxing Crescent
Feb 6
First Quarter
Feb 14
Full
Feb 22
Last Quarter
Mar 1
New

Hourly Weather History & Observations

Time (EST) Temp. Windchill Dew Point Humidity Pressure Visibility Wind Dir Wind Speed Gust Speed Precip Events Conditions
12:51 AM 27.0 °F - 19.0 °F 72% 30.19 in 10.0 mi Calm Calm - N/A   Clear
1:51 AM 25.0 °F - 16.0 °F 69% 30.22 in 10.0 mi Calm Calm - N/A   Clear
2:51 AM 21.0 °F - 16.0 °F 81% 30.23 in 10.0 mi Calm Calm - N/A   Clear
3:51 AM 23.0 °F - 18.0 °F 81% 30.25 in 10.0 mi Calm Calm - N/A   Clear
4:51 AM 21.9 °F - 17.1 °F 82% 30.26 in 10.0 mi Calm Calm - N/A   Clear
5:51 AM 23.0 °F - 18.0 °F 81% 30.28 in 10.0 mi Calm Calm - N/A   Clear
6:51 AM 21.0 °F - 17.1 °F 85% 30.31 in 10.0 mi Calm Calm - N/A   Clear
7:51 AM 19.9 °F - 17.1 °F 89% 30.34 in 10.0 mi Calm Calm - N/A   Clear
8:51 AM 25.0 °F - 19.9 °F 81% 30.35 in 10.0 mi Calm Calm - N/A   Clear
9:51 AM 30.0 °F - 19.9 °F 66% 30.33 in 10.0 mi Calm Calm - N/A   Clear
10:51 AM 34.0 °F - 19.9 °F 56% 30.32 in 10.0 mi Calm Calm - N/A   Clear
11:51 AM 37.9 °F - 19.9 °F 48% 30.30 in 10.0 mi Calm Calm - N/A   Clear
12:51 PM 39.0 °F - 19.0 °F 45% 30.26 in 10.0 mi Calm Calm - N/A   Clear
1:51 PM 39.0 °F - 19.9 °F 46% 30.25 in 10.0 mi Calm Calm - N/A   Clear
2:51 PM 39.0 °F 34.0 °F 19.9 °F 46% 30.22 in 10.0 mi SSE 6.9 mph - N/A   Mostly Cloudy
3:51 PM 39.0 °F 34.0 °F 19.9 °F 46% 30.21 in 10.0 mi SE 6.9 mph - N/A   Overcast
4:51 PM 39.0 °F 32.3 °F 23.0 °F 53% 30.19 in 10.0 mi South 10.4 mph - N/A   Overcast
5:51 PM 37.0 °F 32.4 °F 24.1 °F 59% 30.18 in 10.0 mi ESE 5.8 mph - N/A   Overcast
6:51 PM 35.1 °F 29.3 °F 24.1 °F 64% 30.19 in 5.0 mi SSE 6.9 mph - 0.00 in Snow Light Snow
7:51 PM 34.0 °F - 27.0 °F 75% 30.15 in 10.0 mi Calm Calm - 0.00 in   Overcast
8:51 PM 35.1 °F 29.3 °F 24.1 °F 64% 30.11 in 10.0 mi SSE 6.9 mph - N/A   Overcast
9:51 PM 35.1 °F 27.9 °F 24.1 °F 64% 30.08 in 10.0 mi South 9.2 mph - N/A   Scattered Clouds
10:14 PM 35.1 °F 29.3 °F 25.0 °F 67% 30.06 in 10.0 mi South 6.9 mph - N/A   Mostly Cloudy
10:29 PM 34.0 °F 28.8 °F 25.0 °F 70% 30.04 in 10.0 mi SSE 5.8 mph - N/A   Scattered Clouds
10:51 PM 34.0 °F 29.8 °F 26.1 °F 73% 30.05 in 10.0 mi SSE 4.6 mph - N/A   Clear
11:21 PM 34.0 °F 28.0 °F 27.0 °F 75% 30.02 in 10.0 mi SSE 6.9 mph - N/A   Mostly Cloudy
11:51 PM 34.0 °F 28.8 °F 27.0 °F 75% 30.01 in 10.0 mi SSE 5.8 mph - N/A   Mostly Cloudy